FW2168 Weather Reports


time (UTC)temp
C
wind
direction
speed
KPH
gust
KPH
rain 1hr
cm
rain 24hr
cm
rain mn
cm
humidity
%
barometer
mb
20260906171515 31 133 11.3 22.5 0.00 0.00 0.00 75 1014.0
20260906170011 30 146 4.8 14.5 0.00 0.00 0.00 78 1014.4
20260906164508 30 142 9.7 19.3 0.00 0.00 0.00 78 1014.6
20260906163009 30 154 9.7 19.3 0.00 0.00 0.00 79 1014.6
20260906161505 29 130 9.7 19.3 0.00 0.00 0.00 81 1014.5
20260906160001 29 92 8.0 17.7 0.00 0.00 0.00 82 1014.7
20260906154601 28 109 6.4 20.9 0.00 0.00 0.00 84 1014.8
20260906153055 28 153 9.7 20.9 0.00 0.00 0.00 84 1014.6
20260906151551 27 130 9.7 19.3 0.00 0.00 0.00 87 1014.7
20260906144547 26 123 11.3 19.3 0.00 0.00 0.00 92 1014.9
20260906143050 25 144 9.7 17.7 0.00 0.00 0.00 93 1014.9
20260906141547 25 126 11.3 14.5 0.00 0.00 0.00 94 1015.0
20260906140047 25 97 6.4 14.5 0.00 0.00 0.00 95 1015.1
20260906134538 25 146 4.8 17.7 0.00 0.00 0.00 96 1014.9
20260906133056 24 113 6.4 17.7 0.00 0.00 0.00 96 1014.9
20260906131534 24 98 8.0 17.7 0.00 0.00 0.00 96 1014.9
20260906130034 24 92 6.4 16.1 0.00 0.00 0.00 96 1014.7
20260906124531 24 130 9.7 14.5 0.00 0.00 0.00 96 1014.7
20260906123029 24 101 9.7 14.5 0.00 0.00 0.00 96 1014.6
20260906121525 23 128 4.8 11.3 0.00 0.00 0.00 96 1014.4
20260906120122 23 86 6.4 14.5 0.00 0.00 0.00 96 1014.2
20260906114536 23 134 6.4 12.9 0.00 0.00 0.00 95 1013.9
20260906113021 23 103 6.4 16.1 0.00 0.00 0.00 96 1013.6
20260906111517 23 108 8.0 16.1 0.00 0.00 0.00 95 1013.6
20260906110017 23 105 8.0 14.5 0.00 0.00 0.00 95 1013.3
20260906104520 23 119 8.0 12.9 0.00 0.00 0.00 95 1013.4
20260906103013 23 97 6.4 12.9 0.00 0.00 0.00 94 1013.4
20260906101520 23 107 4.8 11.3 0.00 0.00 0.00 94 1013.4
20260906100018 23 107 6.4 11.3 0.00 0.00 0.00 94 1013.4
20260906094509 23 99 6.4 9.7 0.00 0.00 0.00 93 1013.3
20260906093008 24 112 3.2 6.4 0.00 0.00 0.00 92 1013.2
20260906091509 24 150 1.6 9.7 0.00 0.00 0.00 92 1013.0
20260906090008 24 103 4.8 11.3 0.00 0.00 0.00 92 1012.8
20260906084504 25 130 4.8 12.9 0.00 0.00 0.00 91 1012.7
20260906083003 25 121 6.4 14.5 0.00 0.00 0.00 91 1012.7
20260906081559 25 113 8.0 12.9 0.00 0.00 0.00 90 1012.7
20260906074555 25 87 1.6 6.4 0.00 0.00 0.00 88 1013.0
20260906073055 25 124 3.2 12.9 0.00 0.00 0.00 88 1013.0
20260906071554 25 122 6.4 12.9 0.00 0.00 0.00 88 1012.9
20260906070057 25 113 8.0 16.1 0.00 0.00 0.00 88 1012.9
20260906064553 25 104 6.4 16.1 0.00 0.00 0.00 87 1012.9
20260906063048 26 127 6.4 16.1 0.00 0.00 0.00 87 1013.0
20260906061546 26 135 11.3 17.7 0.00 0.00 0.00 87 1013.2
20260906060045 26 121 9.7 17.7 0.00 0.00 0.00 87 1013.1
20260906054557 26 116 11.3 17.7 0.00 0.00 0.00 86 1013.1
20260906053044 26 138 11.3 19.3 0.00 0.00 0.00 86 1013.4
20260906051602 26 104 9.7 16.1 0.00 0.00 0.00 87 1013.3
20260906050044 26 103 11.3 16.1 0.00 0.00 0.00 87 1013.3
20260906044548 26 98 9.7 16.1 0.00 0.00 0.00 86 1013.2
20260906043040 26 109 9.7 14.5 0.00 0.00 0.00 86 1013.1
20260906041537 26 93 9.7 14.5 0.00 0.00 0.00 85 1013.1
20260906040110 26 92 9.7 16.1 0.00 0.00 0.00 83 1013.0
20260906034537 26 110 9.7 12.9 0.00 0.00 0.00 82 1012.8
20260906033051 26 80 8.0 14.5 0.00 0.00 0.00 81 1012.5
20260906031536 26 103 8.0 11.3 0.00 0.00 0.00 80 1012.5
20260906030035 27 109 8.0 12.9 0.00 0.00 0.00 80 1012.5
20260906024534 27 98 6.4 12.9 0.00 0.00 0.00 79 1012.1
20260906023034 27 103 8.0 11.3 0.00 0.00 0.00 78 1012.0
20260906021533 27 104 8.0 12.9 0.00 0.00 0.00 78 1011.6
20260906020034 27 96 6.4 12.9 0.00 0.00 0.00 77 1011.5
20260906014532 28 92 8.0 12.9 0.00 0.00 0.00 77 1011.4
20260906013033 28 96 8.0 12.9 0.00 0.00 0.00 76 1011.2
20260906011531 28 103 8.0 12.9 0.00 0.00 0.00 75 1010.9
20260906010030 28 100 4.8 9.7 0.00 0.00 0.00 74 1011.0
20260906004530 29 111 4.8 6.4 0.00 0.00 0.00 72 1010.9
20260906003029 30 111 4.8 9.7 0.00 0.00 0.00 70 1010.9
20260906001531 31 117 3.2 9.7 0.00 0.00 0.00 68 1010.7
20260906000028 32 113 4.8 12.9 0.00 0.00 0.00 66 1010.9
20260905234527 32 103 4.8 12.9 0.00 0.00 0.00 64 1010.7
20260905233026 32 111 8.0 12.9 0.00 0.00 0.00 63 1010.7
20260905231526 33 96 8.0 16.1 0.00 0.00 0.00 62 1010.9
20260905230025 33 119 11.3 17.7 0.00 0.00 0.00 60 1010.8
20260905224600 33 99 9.7 17.7 0.00 0.00 0.00 61 1010.7
20260905223023 33 119 12.9 24.1 0.00 0.00 0.00 60 1010.4
20260905221522 33 113 11.3 20.9 0.00 0.00 0.00 62 1010.7
20260905220021 33 107 11.3 20.9 0.00 0.00 0.00 62 1010.9
20260905214520 33 126 11.3 17.7 0.00 0.00 0.00 62 1010.7
20260905213020 33 94 11.3 16.1 0.00 0.00 0.00 61 1010.7
20260905211617 33 96 12.9 24.1 0.00 0.00 0.00 61 1011.0
20260905210023 33 88 11.3 19.3 0.00 0.00 0.00 62 1011.0
20260905204516 33 108 12.9 22.5 0.00 0.00 0.00 61 1011.2
20260905203014 33 360 11.3 19.3 0.00 0.00 0.00 61 1011.5
20260905201513 34 48 12.9 20.9 0.00 0.00 0.00 60 1011.7
20260905200022 34 30 3.2 14.5 0.00 0.00 0.00 59 1011.9
20260905194517 34 85 9.7 16.1 0.00 0.00 0.00 59 1012.1
20260905193012 34 5 8.0 14.5 0.00 0.00 0.00 62 1012.2
20260905191509 34 24 12.9 20.9 0.00 0.00 0.00 59 1012.5
20260905190009 35 15 11.3 19.3 0.00 0.00 0.00 61 1012.5
20260905184519 34 342 8.0 16.1 0.00 0.00 0.00 59 1012.8
20260905183006 34 10 11.3 16.1 0.00 0.00 0.00 59 1013.0
20260905181505 34 25 6.4 14.5 0.00 0.00 0.00 59 1013.0
20260905180109 34 344 3.2 12.9 0.00 0.00 0.00 59 1013.2
20260905174503 34 299 4.8 14.5 0.00 0.00 0.00 59 1013.3
20260905173001 34 323 6.4 12.9 0.00 0.00 0.00 61 1013.2